DW3857 Weather Reports


time (UTC)temp
C
wind
direction
speed
KPH
gust
KPH
rain 1hr
cm
rain 24hr
cm
rain mn
cm
humidity
%
barometer
mb
20190424074630 14 0.0 0.0 0.00 0.23 0.00 80 1010.2
20190424073147 13 0.0 0.0 0.00 0.23 0.00 81 1010.2
20190424071716 13 0.0 0.0 0.00 0.23 0.00 82 1010.1
20190424070100 12 0.0 0.0 0.00 0.23 0.00 84 1010.1
20190424064656 12 0.0 0.0 0.00 0.23 0.00 85 1010.2
20190424063112 11 0.0 0.0 0.00 0.23 0.00 85 1010.3
20190424061635 11 0.0 0.0 0.00 0.23 0.00 86 1010.3
20190424060109 10 0.0 0.0 0.00 0.23 0.00 87 1010.2
20190424054633 10 0.0 0.0 0.00 0.23 0.00 87 1010.2
20190424053138 10 0.0 0.0 0.00 0.23 0.00 87 1010.1
20190424051637 10 0.0 0.0 0.00 0.23 0.00 87 1010.3
20190424050101 10 0.0 0.0 0.00 0.23 0.00 87 1010.2
20190424044634 10 0.0 0.0 0.00 0.23 0.00 87 1010.2
20190424043102 10 0.0 0.0 0.00 0.23 0.00 87 1010.1
20190424041638 9 0.0 0.0 0.00 0.23 0.00 87 1010.1
20190424040045 9 0.0 0.0 0.00 0.23 0.00 87 1010.1
20190424034557 9 0.0 0.0 0.00 0.23 0.00 87 1010.0
20190424033051 9 0.0 0.0 0.00 0.23 0.00 87 1010.1
20190424031549 9 0.0 0.0 0.00 0.23 0.00 87 1010.0
20190424030130 9 0.0 0.0 0.00 0.23 0.00 87 1009.9
20190424024534 9 0.0 0.0 0.00 0.23 0.00 86 1009.9
20190424023054 9 0.0 0.0 0.00 0.23 0.00 86 1009.9
20190424021634 9 0.0 0.0 0.00 0.23 0.00 86 1010.0
20190424020054 9 0.0 0.0 0.00 0.23 0.00 85 1010.1
20190424014558 9 0.0 0.0 0.00 0.23 0.00 85 1010.0
20190424013105 9 0.0 0.0 0.00 0.23 0.00 85 1010.0
20190424011535 9 0.0 0.0 0.00 0.23 0.00 85 1010.0
20190424010048 9 0.0 0.0 0.00 0.23 0.00 85 1010.1
20190424004611 10 0.0 0.0 0.00 0.23 0.00 84 1010.1
20190424003032 10 0.0 0.0 0.00 0.23 0.00 84 1010.1
20190424001558 10 0.0 0.0 0.00 0.23 0.00 84 1010.1
20190424000035 10 0.0 0.0 0.00 0.23 0.00 84 1010.3
20190423234550 10 0.0 0.0 0.00 0.23 0.00 84 1010.6
20190423233019 10 0.0 0.0 0.00 0.23 0.00 84 1010.6
20190423231520 10 0.0 0.0 0.00 0.23 0.00 84 1010.6
20190423230015 10 0.0 0.0 0.00 0.23 0.00 85 1010.8
20190423224519 10 0.0 0.0 0.00 0.23 0.00 85 1010.9
20190423223016 10 0.0 0.0 0.00 0.23 0.00 86 1011.0
20190423221518 10 0.0 0.0 0.00 0.23 0.00 87 1011.2
20190423220007 10 0.0 0.0 0.00 0.23 0.00 87 1011.3
20190423214507 10 0.0 0.0 0.00 0.23 0.23 87 1011.3
20190423213019 10 0.0 0.0 0.00 0.23 0.23 88 1011.3
20190423211505 10 0.0 0.0 0.00 0.23 0.23 88 1011.5
20190423210013 10 0.0 0.0 0.00 0.23 0.23 89 1011.5
20190423204504 10 0.0 0.0 0.00 0.23 0.23 89 1011.6
20190423203015 10 0.0 0.0 0.00 0.23 0.23 89 1011.4
20190423201502 10 0.0 0.0 0.00 0.23 0.23 89 1011.4
20190423200002 10 0.0 0.0 0.00 0.23 0.23 89 1011.5
20190423194716 10 0.0 0.0 0.00 0.23 0.23 89 1011.6
20190423193255 10 0.0 0.0 0.00 0.23 0.23 89 1011.6
20190423191648 10 0.0 0.0 0.00 0.23 0.23 89 1011.6
20190423190237 10 0.0 0.0 0.00 0.23 0.23 89 1011.4
20190423184641 10 0.0 0.0 0.00 0.23 0.23 89 1011.2
20190423183211 10 0.0 0.0 0.00 0.23 0.23 89 1010.8
20190423181736 10 0.0 0.0 0.00 0.23 0.23 90 1010.8
20190423180144 10 0.0 0.0 0.00 0.23 0.23 90 1010.7
20190423174723 10 0.0 0.0 0.00 0.23 0.23 90 1010.6
20190423173135 10 0.0 0.0 0.00 0.23 0.23 91 1010.7
20190423171638 10 0.0 0.0 0.00 0.23 0.23 91 1010.6
20190423170149 9 0.0 0.0 0.00 0.23 0.23 91 1010.6
20190423164617 9 0.0 0.0 0.00 0.23 0.23 92 1010.7
20190423163208 9 0.0 0.0 0.00 0.23 0.23 92 1010.6
20190423161622 9 0.0 0.0 0.00 0.23 0.23 92 1010.8
20190423160147 9 0.0 0.0 0.00 0.23 0.23 92 1010.7
20190423154652 9 0.0 0.0 0.00 0.23 0.23 92 1010.9
20190423153127 9 0.0 0.0 0.00 0.23 0.23 92 1010.8
20190423151738 9 0.0 0.0 0.00 0.23 0.23 92 1010.9
20190423150154 10 0.0 0.0 0.00 0.23 0.23 92 1010.9
20190423144626 10 0.0 0.0 0.00 0.23 0.23 91 1010.8
20190423143133 10 0.0 0.0 0.00 0.23 0.23 91 1010.9
20190423141650 10 0.0 0.0 0.03 0.23 0.23 91 1011.0
20190423140216 10 0.0 0.0 0.03 0.23 0.23 91 1011.0
20190423134656 10 0.0 0.0 0.03 0.23 0.23 91 1011.0
20190423133156 10 0.0 0.0 0.05 0.23 0.23 91 1011.1
20190423131635 10 0.0 0.0 0.03 0.20 0.20 91 1011.1
20190423130136 10 0.0 0.0 0.05 0.20 0.20 90 1011.2
20190423124639 10 0.0 0.0 0.05 0.20 0.20 90 1011.4
20190423123100 10 0.0 0.0 0.08 0.18 0.18 90 1011.3
20190423121605 10 0.0 0.0 0.13 0.18 0.18 89 1011.5
20190423120102 10 0.0 0.0 0.15 0.15 0.15 89 1011.4
20190423114646 10 0.0 0.0 0.15 0.15 0.15 87 1011.4
20190423113057 10 0.0 0.0 0.10 0.10 0.10 85 1011.3
20190423111551 11 0.0 0.0 0.05 0.05 0.05 82 1011.1
20190423110122 11 0.0 0.0 0.03 0.03 0.03 78 1010.9
20190423104640 12 0.0 0.0 0.00 0.00 0.00 74 1010.8
20190423103139 11 0.0 0.0 0.00 0.00 0.00 72 1010.7
20190423101606 11 0.0 0.0 0.00 0.00 0.00 72 1010.7
20190423100141 11 0.0 0.0 0.00 0.00 0.00 72 1010.7
20190423094604 11 0.0 0.0 0.00 0.00 0.00 74 1010.7
20190423093049 11 0.0 0.0 0.00 0.00 0.00 75 1010.6
20190423091554 11 0.0 0.0 0.00 0.00 0.00 73 1010.5
20190423090115 11 0.0 0.0 0.00 0.00 0.00 70 1010.5
20190423084610 11 0.0 0.0 0.00 0.00 0.00 69 1010.6
20190423083112 11 0.0 0.0 0.00 0.00 0.00 69 1010.5
20190423081602 11 0.0 0.0 0.00 0.00 0.00 68 1010.4
20190423080038 11 0.0 0.0 0.00 0.00 0.00 69 1010.3